Regional Weather Roundup
Issued by NWS Grand Forks, ND

Home | Current Version | Previous Version | Graphics & Text | Print | Product List | Glossary On
Versions: 1 2 3 4 5 6 7 8 9 10 11 12 13 14 15 16 17 18 19 20 21 22 23 24 25 26 27 28 29 30 31 32 33 34 35 36 37 38 39 40 41 42 43 44 45 46 47 48 49 50
000
ASUS43 KFGF 270210
RWRFGF
PRAIRIE TO PINES  WEATHER ROUNDUP
NATIONAL WEATHER SERVICE EASTERN NORTH DAKOTA/GRAND FORKS ND
900 PM CDT WED APR 26 2017

 **SATELLITE DATA USED TO AUGMENT SKY COVER AT AUTOMATED STATIONS**
 *****  WEATHER ACROSS EASTERN NORTH DAKOTA  *****

CITY           SKY/WX    TMP DP  RH WIND       PRES   REMARKS
GRAND FORKS    LGT SNOW  32  29  88 N17       29.78S FOG     WCI  21
GRAND FRKS AFB LGT SNOW  30  29  96 NE18      29.78S FOG     WCI  17
DEVILS LAKE    CLOUDY    36  25  64 NE12      29.79S
FARGO          FOG       29  28  96 N16       29.73R VSB 3/4 WCI  17
WAHPETON ARPT  CLOUDY    30  27  86 N14       29.70S WCI  20
$$

 ***** WEATHER ACROSS CENTRAL AND WESTERN NORTH DAKOTA  *****

CITY           SKY/WX    TMP DP  RH WIND       PRES   REMARKS
BISMARCK       CLOUDY    40  29  64 NE14      29.76S
MINOT          FAIR      40  26  57 NE8       29.77S
JAMESTOWN      CLOUDY    31  26  82 NE14      29.75F WCI  21
MINOT AFB      FAIR      41  26  56 E10       29.77R
GARRISON         N/A     40  27  59 E12       29.75S
WILLISTON      FAIR      44  21  40 E10       29.76S
DICKINSON      FAIR      37  21  52 NE6       29.71F
HETTINGER      FAIR      38  24  57 NE8       29.72F
$$

 *****  OTHER AIRPORT OBSERVATIONS IN OUR AREA  *****

CITY           SKY/WX    TMP DP  RH WIND       PRES   REMARKS
WALHALLA       NOT AVBL
GRAFTON AIRPOR LGT SNOW  30  30 100 NE15      29.82S WCI  19
VALLEY CITY AR LGT RAIN  28  28 100 N15       29.76F WCI  17
CANDO          NOT AVBL
CAVALIER APRT  CLOUDY    36  23  60 NE9G15    29.80S
GWINNER        CLOUDY    28  27  93 MISG      29.73S
SHEYENNE NWR     N/A     28  26  90 N9        29.95S WCI  19
ROLLA          FAIR      34  23  64 NE15      29.80S WCI  24
 ***** THE ABOVE OBSERVATIONS ARE NON NWS ARE NOT QUALITY
       CONTROLLED AND MAY MIS-REPORT RAIN FOR SNOW...
$$

  *****  WEATHER ACROSS NORTHERN MINNESOTA  *****

CITY           SKY/WX    TMP DP  RH WIND       PRES   REMARKS
FLAG ISLAND    FLURRIES  30  21  69 NE25G33   29.78F WCI  16
WARROAD        LGT SNOW  30  27  86 NE21G30   29.76F WCI  17
ROSEAU         LGT SNOW  30  27  86 NE21G28   29.76F WCI  17
HALLOCK        FLURRIES  32  28  86 NE10      29.80S WCI  24
THF RVR FALLS  FLURRIES  28  27  93 NE13      29.74R WCI  18
BAUDETTE       LGT SNOW  27  21  78 NE14      29.73S WCI  16
WASKISH        CLOUDY    27  21  80 NE10G22   29.71R WCI  17
CROOKSTON      FLURRIES  28  28 100 N12       29.76S WCI  18
STEPHEN NDAWN    N/A     28  28 100 N12         N/A  WCI  18
GREENBUSH NDAW   N/A     28  28 100 N10         N/A  WCI  19
$$
  *****  WEATHER ACROSS CENTRAL AND WEST MINNESOTA  *****

CITY           SKY/WX    TMP DP  RH WIND       PRES   REMARKS
FOSSTON        LGT SNOW  25  23  93 N13       29.70R WCI  13
BEMIDJI        LGT SNOW  26  24  93 N10       29.67R WCI  16
PARK RAPIDS    LGT SNOW  28  23  81 N7        29.64R WCI  21
ELBOW LAKE     CLOUDY    31  28  90 N12       29.67R WCI  21
WADENA         MIX PCPN  27  27 100 N3        29.64R
DETROIT LAKES  FAIR      30  28  93 N9        29.67R WCI  22
MOORHEAD       HVY RAIN  28  27  93 N7        29.73R WCI  21
FERGUS FALLS   CLOUDY    30  27  86 N9G18     29.68S WCI  22
MORRIS MN      CLOUDY    30  28  93 NW15      29.65S WCI  19
STAPLES        LGT SNOW  27  27 100 N6        29.64R WCI  20
$$
  *****  WEATHER ELSEWHERE ACROSS MINNESOTA  *****

CITY           SKY/WX    TMP DP  RH WIND       PRES   REMARKS
DULUTH         CLOUDY    28  24  85 N14       29.59S WCI  17
INTRNTL FALLS  CLOUDY    25  17  72 NE15G25   29.72R WCI  13
ELY            CLOUDY    21  18  86 N5G16     29.64S WCI  15
CLOQUET        CLOUDY    30  27  86 N7        29.60S WCI  23
WHEATON        CLOUDY    30  27  86 NW15      29.71S WCI  19
BRAINERD       LGT SNOW  30  27  88 N12       29.63S FOG     WCI  20
HIBBING        CLOUDY    25  20  81 N7        29.64R WCI  17
ALEXANDRIA     CLOUDY    31  26  82 N9        29.64R WCI  23
SAINT CLOUD    CLOUDY    32  31  96 N8        29.62R FOG     WCI  25
MINNEAPOLIS    CLOUDY    38  31  76 N12       29.59R
$$

  *****  WEATHER ACROSS SOUTH DAKOTA  *****

CITY           SKY/WX    TMP DP  RH WIND       PRES   REMARKS
SIOUX FALLS    CLOUDY    33  27  78 N15       29.67S WCI  23
BROOKINGS      CLOUDY    29  25  85 NW16      29.66F WCI  17
WATERTOWN      CLOUDY    28  24  85 N17       29.67S WCI  16
HURON          CLOUDY    32  26  78 N16       29.72F WCI  21
SISSETON         N/A     30  27  88 N20       29.70S WCI  17
ABERDEEN       CLOUDY    30  24  78 N12       29.75R WCI  20
MITCHELL       CLOUDY    35  28  75 N15       29.72S
PIERRE         FAIR      36  27  69 NE8       29.70R
MOBRIDGE       FAIR      35  24  64 NE8       29.71S
RAPID CITY     MOCLDY    36  29  75 NW5       29.73S
$$

  *****  SOME WEATHER IN NEARBY STATES *****

CITY           SKY/WX    TMP DP  RH WIND       PRES   REMARKS
GLASGOW MT     FAIR      45  26  47 S7        29.70R
GREAT FALLS MT CLOUDY    43  39  86 S8        29.59F
CHEYENNE WY    FAIR      43  31  62 NW7       29.70S
SCOTTSBLUFF NE LGT RAIN  47  38  71 SE9       29.69R
OMAHA NE       CLOUDY    42  31  64 NW17      29.67R
DES MOINES IA  CLOUDY    44  36  73 NW15      29.58F
DAVENPORT IA   CLOUDY    49  44  83 NW13      29.48F
CHICAGO IL     CLOUDY    63  56  78 W5        29.45S
EAU CLAIRE WI  CLOUDY    38  34  85 NW9       29.53S
LA CROSSE WI   CLOUDY    44  39  82 N12       29.53R
$$

  *****  SOME NATIONAL WEATHER *****

CITY           SKY/WX    TMP DP  RH WIND       PRES   REMARKS
LA GUARDIA NY  CLOUDY    61  56  83 E6        29.83R
RALEIGH NC     FAIR      69  63  81 SE5       29.82R
ATLANTA GA     MOCLDY    73  58  59 S10       29.80R
NEW ORLEANS LA MOCLDY    77  73  87 S13G20    29.67R
OKLAHOMA CITY  FAIR      51  40  65 CALM      29.72R
ALBUQUERQUE NM MOCLDY    63  19  18 W15       29.76F
SALT LAKE CITY LGT RAIN  48  43  82 N3        29.74F
LOS ANGELES CA FAIR      63  55  75 SW13      29.83S
BOISE ID       MOCLDY    47  43  86 NW5       29.72S
SEATTLE WA     PTSUNNY   53  39  59 SW15      29.89S
$$

*** WEATHER ACROSS MANITOBA...SASKATCHEWAN AND ONTARIO ***
                ***ONTARIO***

CITY           SKY/WX    TMP DP  RH WIND       PRES   REMARKS
GERALDTON      LGTSLEET  18  14  86 NE18G26   29.71S VSB 1/2 WCI   2
THUNDER BAY    FLURRIES  23  19  86 N9        29.64R WCI  13
SIOUX LOOKOUT  LGT SNOW  19  16  86 NE8G20    29.79F VSB 3/4 WCI   9
TORONTO        CLEAR     55  52  88 NE5       29.70S
BIG TROUT LK   CLOUDY    25   7  46 E6        30.14R WCI  18
PICKLE LAKE    LGT SNOW  18  14  86 NE13G26   29.94S VSB 1   WCI   4
DRYDEN         FLURRIES  21  18  86 NE16G26   29.79R WCI   7
KENORA         LGT SNOW  25  21  86 NE14G26   29.80S DRFTSNOWWCI  13
$$
                *** MANITOBA***

CITY           SKY/WX    TMP DP  RH WIND       PRES   REMARKS
BRANDON        MOCLDY    36  19  51 NE13      29.86R
DAUPHIN        CLEAR     34  21  60 NE9       29.92S
ISLAND LAKE    PTCLDY    32   5  32 NE7       30.07
PILOT MOUND    NOT AVBL
THE PAS        PTCLDY    36   5  27 E6        30.00S
THOMPSON       CLEAR     32   1  27 E5        30.09R
WINNIPEG       CLOUDY    39  18  41 NE15G23   29.84S
LYNN LAKE      CLEAR     34   3  27 S6        30.02R
CHURCHILL      PTCLDY    25  10  54 S12       30.13S WCI  14
GILLAM         PTCLDY    27   0  31 SE3       30.15F
$$
                ***SASKATCHEWAN***

CITY           SKY/WX    TMP DP  RH WIND       PRES   REMARKS
ESTEVAN        PTCLDY    41  21  45 E10       29.79S
KINDERSLEY     CLOUDY    36  34  93 E20       29.71S
LLOYDMINSTER   FLURRIES  36  34  93 E15G21    29.78S
PRINCE ALBERT  PTCLDY    37  16  41 E7        29.89S
REGINA         MOCLDY    41  18  38 E10       29.80S
YORKTON        CLEAR     37  19  48 SE9       29.87S
N. BATTLEFORD  CLOUDY    39  23  52 SE14      29.83R
LA RONGE       PTCLDY    39  14  35 E8        29.92R
SASKATOON      NOT AVBL
SWIFT CURRENT  CLOUDY    43  28  56 SE14G21   29.68S
$$
NOTE: THESE ARE AUTOMATED STATIONS WITH LIMITED QUALITY CONTROL
      "FAIR" INDICATES FEW OR NO CLOUDS BELOW 12,000 FEET WITH NO
      SIGNIFICANT WEATHER AND/OR OBSTRUCTIONS TO VISIBILITY.
      SKY/WX - SKY CONDITION AND SIGNIFICANT WEATHER.
      TMP - AIR TEMPERATURE.    DP   - DEWPOINT TEMPERATURE.
      RH  - RELATIVE HUMIDITY.  PRES - PRESSURE.
      HX  - HEAT INDEX.         WCI  - WIND CHILL INDEX.
$




USA.gov is the U.S. government's official web portal to all federal, state and local government web resources and services.